Orbital Elements at Epoch 2459200.5 (2020-Dec-17.0) TDB
Reference: JPL 25 (heliocentric ecliptic J2000)
Element | Value | Uncertainty (1-sigma) | Units |
e | .004708161074426071 | 3.837e-08 | |
a | 2.646504595243864 | 1.4878e-08 | au |
q | 2.634044425325247 | 1.0063e-07 | au |
i | 9.544931730838098 | 5.6224e-06 | deg |
node | 5.723146077790235 | 2.451e-05 | deg |
peri | 261.9864022034041 | 0.00061585 | deg |
M | 169.6737200393817 | 0.00061602 | deg |
tp | 2458459.327176984386 (2018-Dec-06.82717698) | 0.0026906 | TDB |
period | 1572.560654789033 4.31 | 1.3261e-05 3.631e-08 | d yr |
n | .228925986990496 | 1.9305e-09 | deg/d |
Q | 2.658964765162481 | 1.4948e-08 | au |
|
| | Orbit Determination Parameters
Additional Information
|